Location: Codford Saint Peter
(51.1597°N, 2.0531°W)
Time: 22:23:35
(UTC+00:00)

Terra - Pass Details

Date: 18 September 2020
Orbit: 701 x 703 km, 98.2° (Epoch: 31 October)

Event Time Altitude Azimuth Distance (km) Brightness Sun altitude
Exits shadow 21:57:46 42° 347° (NNW) 1,014 2.9 -31.2°
Drops below altitude 10° 22:00:54 10° 346° (NNW) 2,185 5.1 -31.5°
Sets 22:03:10 0° 346° (NNW) 3,107 6.1 -31.7°
